Hourly Data Report for October 18, 2015

All times are specified in Local Standard Time (LST). Add 1 hour to adjust for Daylight Saving Time where and when it is observed.

PETAWAWA AWOS 2
ONTARIO

45°57'00.000" N
77°19'00.000" W
130.10 m
6106396
71625
YWA

Download Data

Hourly Data (October 2015)
Hourly Data Report for October 18, 2015
Temp Definition
°C
Dew Point Temp Definition
°C
Rel Hum Definition
%
Wind Dir Definition
10's deg

Wind Spd Definition
km/h
Visibility Definition
km
Stn Press Definition
kPa
Hmdx Definition


Wind Chill Definition


Weather Definition


TIME
00:00 -3.6 -5.7 85 27 6 14.5 100.86   -6 LegendNANA
01:00 -4.3 -5.8 89 28 7 14.5 100.86   -7 LegendNANA
02:00 -4.1 -5.7 89 27 6 14.5 100.86   -7 LegendNANA
03:00 -2.9 -4.4 89 27 6 14.5 100.85   -5 LegendNANA
04:00 -3.0 -4.4 90 26 4 14.5 100.87   -5 LegendNANA
05:00 -2.4 -3.8 90 27 4 14.5 100.91   -4 LegendNANA
06:00 -1.8 -3.6 88 29 6 14.5 100.96   -4 LegendNANA
07:00 -1.2 -3.6 84 30 7 14.5 101.05   -4 LegendNANA
08:00 -0.6 -4.4 75 35 11 14.5 101.14   -4 LegendNANA
09:00 -0.4 -6.9 62 35 19 14.5 101.20   -6 Snow
10:00 0.3 -9.0 50 33 19 14.5 101.23     Snow
11:00 0.8 -9.3 47 36 13 14.5 101.24     LegendNANA
12:00 1.2 -8.5 48 31 17 14.5 101.23     LegendNANA
13:00 1.1 -8.1 50 35 20 14.5 101.21     Snow
14:00 2.1 -7.9 48 32 13 14.5 101.21     LegendNANA
15:00 1.6 -8.6 47 32 19 14.5 101.22     LegendNANA
16:00 1.6 -7.2 52 29 11 14.5 101.25     LegendNANA
17:00 0.5 -6.5 59 30 13 14.5 101.32     Snow
18:00 -1.0 -6.4 67 28 9 14.5 101.34   -4 LegendNANA
19:00 -1.9 -6.6 70 29 7 14.5 101.35   -5 LegendNANA
20:00 -1.9 -7.3 66 30 7 14.5 101.36   -5 LegendNANA
21:00 -4.5 -6.9 83 26 4 14.5 101.35   -6 LegendNANA
22:00 -4.6 -6.2 88 23 4 14.5 101.37   -6 LegendNANA
23:00 -5.1 -7.1 86 23 4 14.5 101.36   -7 LegendNANA

Notes on Data Quality.

Legend

  • E = Estimated
  • M = Missing
  • NA = Not Available
  • ‡ = Partner data that is not subject to review by the National Climate Archives
Date modified: